Theta_e
282 279 273 274 278 279 279 279 277 279 278 277 276 274 275 275 275 277 278 282 279 279 275 276 277 275 275 276 276 277 278 278 277 276 276 276 276 275 274 275 275 276 276 279 279 279 279 279 279 278 278 279 278 279 279 279 279 279 280 280 279 281 280 281 280 280 280 280 280 279 280 281 281 282 284 284 284 283 283 284 285 285 285 285 284 285
283 278 276 279 279 279 280 279 278 278 277 277 276 273 274 274 274 278 278 280 279 278 276 277 275 274 274 275 276 277 277 275 275 275 275 275 275 275 275 275 276 277 278 278 277 278 278 279 279 279 279 280 277 278 279 278 278 279 279 279 280 281 280 279 280 281 281 281 280 280 280 280 281 281 282 282 282 283 284 284 284 285 285 284 284 285
276 277 281 280 279 279 277 278 278 278 278 275 275 273 271 275 276 279 278 279 280 279 277 275 274 273 274 275 276 276 276 276 276 276 275 274 274 274 275 275 276 276 276 276 276 277 277 278 278 278 278 278 278 278 277 278 278 278 279 279 280 280 279 280 282 283 282 281 282 281 281 281 281 281 282 282 282 283 283 283 284 284 284 285 285 285
275 275 279 279 277 279 278 276 277 277 277 275 274 272 272 275 273 274 277 277 278 277 276 276 273 273 274 274 274 275 275 275 276 276 275 275 274 274 274 275 275 275 275 275 276 276 277 277 277 277 277 277 277 277 277 278 278 278 280 279 279 279 279 281 282 284 282 282 283 283 282 282 281 281 284 282 282 281 281 281 283 283 283 283 283 284
279 280 280 278 276 277 279 275 277 275 275 275 276 273 273 274 275 274 276 278 278 277 278 275 272 272 273 272 273 274 276 275 275 274 274 274 275 275 276 276 276 276 276 275 276 276 276 276 275 276 277 276 276 276 277 277 278 278 278 279 279 279 280 281 283 282 282 282 282 281 281 281 280 279 279 278 279 280 282 283 281 282 282 282 283 283
277 279 281 281 276 276 277 276 276 277 274 273 274 276 276 276 275 276 276 275 274 272 277 276 267 267 272 272 272 273 273 273 274 272 272 273 274 275 275 275 276 276 276 275 275 275 275 275 275 275 275 275 275 276 277 277 278 277 278 278 279 280 281 281 281 282 282 282 281 280 279 279 279 279 279 278 279 279 279 280 282 282 282 283 283 283
279 279 279 280 277 276 275 275 276 277 273 270 275 274 276 275 275 275 275 274 269 268 272 277 269 261 271 271 272 272 271 271 272 272 272 273 274 274 274 274 274 274 274 275 274 275 275 275 275 275 275 275 275 276 277 277 277 277 277 278 280 280 280 280 280 281 282 280 281 280 280 279 279 278 279 280 280 279 280 281 280 281 282 282 283 283
280 280 279 278 276 276 276 275 276 276 272 273 275 276 275 275 275 275 275 273 272 276 276 275 272 264 264 272 273 273 271 270 271 271 271 272 272 272 273 273 273 274 274 273 273 274 275 275 275 274 274 275 275 276 276 276 276 276 277 277 278 279 279 280 280 280 280 280 280 280 280 280 279 279 279 279 279 279 280 280 280 280 280 281 281 282
280 280 278 279 277 276 276 277 279 277 275 278 278 277 276 276 275 276 274 273 272 271 267 271 273 267 264 270 274 273 270 270 270 270 271 271 272 272 273 273 273 273 273 273 273 273 274 274 274 274 273 274 275 275 275 275 275 276 276 276 276 276 277 277 278 279 279 280 280 280 279 279 279 279 279 280 281 279 279 277 278 279 279 280 280 281
281 280 281 280 278 276 277 279 278 277 276 276 277 277 276 276 276 275 273 272 268 266 262 269 272 265 266 271 271 272 271 270 270 270 271 271 271 272 272 273 273 273 273 273 273 273 274 274 273 273 274 274 274 275 275 275 275 275 275 275 275 274 275 276 276 277 276 277 277 278 278 277 277 278 278 278 277 277 277 276 277 277 277 279 279 279
279 282 283 280 280 280 280 280 279 277 279 278 277 277 277 276 273 272 270 267 266 259 263 269 272 268 263 269 271 270 272 270 269 270 271 271 271 272 272 272 272 272 273 273 273 273 273 273 273 273 273 273 274 274 274 274 274 274 274 274 274 274 275 275 275 275 274 275 275 275 275 275 275 276 276 277 277 276 275 275 276 276 277 278 278 279
278 280 283 282 284 282 280 279 278 278 277 277 275 272 275 275 272 270 267 263 259 263 266 269 270 270 260 267 271 271 269 269 269 268 269 270 271 271 271 272 272 272 273 272 272 272 272 272 272 272 272 273 273 273 273 273 274 274 274 274 273 273 274 274 274 274 273 274 274 274 275 275 275 276 276 276 276 277 276 275 275 275 275 276 277 277
275 279 278 279 285 281 279 277 276 278 275 277 276 274 270 267 264 262 265 263 261 263 269 270 269 267 267 270 272 270 271 270 270 271 271 271 271 271 271 272 273 273 271 272 272 272 272 272 272 272 272 272 272 273 273 273 273 273 273 273 273 273 273 273 273 272 272 272 272 273 274 275 276 276 276 277 277 277 277 276 275 275 274 274 275 274
274 275 278 279 280 282 279 275 275 275 276 277 275 267 266 259 258 261 263 262 262 269 270 269 270 267 272 272 271 270 271 272 271 271 272 272 271 271 272 273 273 273 272 272 272 272 272 272 272 272 272 272 272 272 273 273 274 273 273 273 273 272 273 273 272 272 272 272 272 273 274 275 276 275 276 276 277 277 277 276 276 275 274 274 274 274
266 268 274 278 275 279 278 277 277 276 276 276 274 274 265 263 260 261 258 259 264 267 271 269 264 256 263 269 272 271 272 272 272 272 272 273 272 273 273 272 272 272 272 272 272 272 271 272 272 272 272 272 272 272 273 273 273 273 273 272 272 272 272 272 272 272 271 271 272 273 274 275 275 275 276 277 278 277 276 276 275 275 275 275 274 274
273 272 277 280 279 280 278 280 278 276 275 274 273 273 266 267 269 264 265 262 263 264 264 258 263 263 268 271 274 272 272 272 273 272 273 272 273 272 272 272 272 272 272 272 271 271 271 272 272 272 272 272 272 272 273 273 273 273 272 272 272 272 272 272 272 271 271 271 272 273 274 274 274 275 276 277 277 277 276 276 275 275 275 275 273 272
271 271 275 279 280 277 279 279 279 277 267 272 273 267 270 276 273 268 270 270 268 265 265 263 267 271 270 272 271 271 271 272 272 272 272 272 272 271 271 272 272 272 272 271 271 271 272 272 272 272 272 272 272 273 272 273 273 272 272 272 272 272 271 271 271 271 271 271 271 272 273 273 272 273 273 275 274 275 276 276 275 274 273 272 272 271
264 273 279 277 276 279 279 279 278 278 279 274 265 273 278 276 274 265 263 262 263 262 265 266 266 268 267 264 271 271 270 271 272 272 272 272 271 271 271 271 271 271 271 272 272 272 272 272 272 272 273 272 272 272 272 273 273 272 272 272 271 271 270 270 270 270 270 270 270 271 272 272 272 272 272 271 271 272 273 273 272 272 271 270 271 271
272 269 274 275 277 278 279 277 278 278 279 277 275 276 271 262 264 265 262 259 258 260 263 267 269 268 265 267 269 269 269 269 270 272 272 271 271 270 271 271 271 272 272 272 272 272 272 272 272 272 272 272 272 273 272 273 273 272 272 272 272 270 270 270 270 270 270 270 271 272 271 271 271 271 270 271 272 272 271 270 271 270 270 270 270 271
274 266 272 276 275 277 276 274 271 273 276 277 277 275 273 272 266 264 263 266 267 262 261 262 267 264 270 269 269 268 268 270 270 271 271 271 271 271 271 271 271 272 272 272 272 272 272 272 272 272 272 272 272 272 273 273 272 272 271 271 271 271 270 269 269 269 269 269 270 271 271 270 270 270 270 271 270 269 270 270 270 269 269 269 270 270
271 273 266 274 276 276 272 274 272 273 267 270 268 262 269 266 272 272 265 263 263 262 263 262 260 265 272 272 270 269 269 271 271 271 271 270 271 271 272 272 272 272 272 272 272 272 272 272 272 272 272 272 273 273 274 273 272 271 271 270 270 269 268 268 268 268 268 269 269 268 268 268 269 269 270 269 269 269 269 269 269 268 268 269 269 270
265 268 266 272 272 272 274 276 276 275 275 274 270 270 271 268 263 262 263 266 261 261 261 260 259 267 273 272 271 271 273 273 272 271 270 270 271 271 272 272 272 271 272 272 272 272 272 272 272 272 272 272 273 273 273 273 271 270 270 270 269 268 268 268 268 268 268 268 268 267 268 268 268 268 268 268 267 267 267 267 267 267 268 268 270 270
273 270 268 266 270 273 276 276 276 276 275 274 272 271 269 266 264 263 260 264 268 266 266 265 263 266 271 271 273 274 275 273 271 271 270 271 272 272 272 272 272 272 272 272 272 272 272 272 272 272 272 272 272 272 272 272 270 270 269 269 268 268 267 267 267 267 267 267 267 268 268 268 267 268 267 266 266 266 266 266 267 267 267 268 269 270
280 263 266 272 275 276 275 272 275 272 275 274 274 274 270 267 264 265 266 268 264 264 262 264 263 267 271 273 273 276 275 272 272 272 272 272 272 272 272 272 272 272 272 272 272 272 272 272 272 273 272 272 272 272 272 270 270 270 269 268 268 267 267 267 267 267 267 267 267 267 267 267 267 266 266 265 265 265 266 266 266 267 267 268 268 269
268 269 269 267 267 271 275 274 275 274 275 273 270 271 270 268 268 264 264 259 260 263 265 263 258 263 272 275 275 275 272 271 272 273 273 271 271 272 272 272 272 272 272 271 272 272 272 272 272 272 272 272 272 272 271 270 269 269 268 268 267 267 267 266 267 266 266 266 266 266 266 267 267 266 265 265 265 265 266 266 266 267 267 267 268 269
272 271 267 261 263 261 262 263 266 269 272 274 274 273 271 266 266 262 260 258 260 263 265 262 261 269 273 274 273 273 271 272 272 272 272 272 271 271 271 271 271 271 271 271 271 271 271 272 272 272 272 272 272 271 270 269 269 268 268 267 267 266 266 266 266 266 266 266 265 265 265 266 265 265 264 265 265 265 266 266 266 267 267 267 267 268
265 269 270 268 264 266 269 271 275 276 273 268 271 271 269 268 266 263 262 260 260 264 263 265 266 266 268 270 271 270 271 269 270 270 270 270 271 271 271 271 271 271 271 271 271 271 271 270 271 271 271 271 271 270 269 269 268 268 267 267 267 266 266 265 266 266 265 265 265 264 264 264 264 264 264 264 265 265 266 266 266 267 267 268 269 269
262 265 268 270 270 272 274 273 274 274 270 271 269 268 268 266 263 262 261 262 268 264 259 267 268 265 266 269 269 269 269 269 270 270 270 270 270 270 270 271 273 270 271 271 271 270 269 270 270 270 270 270 270 269 269 268 267 267 266 266 266 265 265 265 265 265 264 264 264 264 264 264 264 264 264 265 265 265 266 266 266 266 266 267 268 268
263 263 264 265 269 271 271 272 274 273 271 271 270 267 265 266 264 263 264 267 268 263 261 267 268 265 267 269 269 269 269 269 269 269 270 270 271 271 270 270 269 269 270 270 270 269 269 268 268 268 269 269 269 268 267 267 266 266 266 265 265 265 265 265 265 264 264 263 263 263 263 264 264 264 265 265 265 265 265 265 265 266 266 267 267 267
267 262 260 262 269 271 272 273 273 270 270 270 267 267 267 266 266 267 267 269 268 266 268 268 267 266 269 269 269 269 270 270 270 271 271 270 269 270 270 269 268 269 269 268 268 268 267 267 267 267 267 268 267 266 265 265 265 265 264 264 264 264 265 265 264 264 263 263 263 263 263 264 264 265 265 265 265 265 265 265 265 265 265 266 266 266
270 267 270 261 265 270 272 271 270 272 271 269 268 267 268 269 269 270 270 269 269 268 268 267 266 265 270 271 269 270 270 271 270 270 269 269 269 269 268 267 267 267 267 267 266 265 265 265 265 265 265 264 264 265 264 264 264 264 264 263 263 264 264 264 264 263 263 263 263 264 264 264 264 265 264 265 265 265 265 265 265 265 265 266 266 266
267 266 265 261 265 268 272 272 272 272 270 265 265 267 267 267 266 268 266 269 267 264 266 265 262 263 268 270 270 270 270 269 268 268 267 268 269 267 267 266 266 266 265 263 263 264 264 264 263 263 263 264 264 264 263 263 263 263 263 263 263 263 264 264 264 263 263 263 264 264 264 264 264 264 264 265 265 265 265 265 265 265 265 265 265 266
262 263 266 259 266 267 272 273 270 269 268 261 258 266 269 269 270 270 270 270 269 268 263 260 262 267 268 269 268 268 268 268 268 267 267 268 267 266 265 265 266 265 263 262 263 263 263 262 263 263 263 263 263 263 263 263 262 262 262 262 263 264 264 263 263 263 263 264 264 264 264 264 264 264 264 264 265 265 265 265 265 265 265 265 265 266
263 263 263 264 261 267 271 269 270 267 261 262 269 272 271 268 269 266 267 268 269 268 265 268 267 268 268 268 267 267 267 267 267 268 269 267 265 265 265 265 265 263 262 263 263 262 262 262 262 262 262 262 263 264 263 263 262 262 263 263 263 263 263 263 263 263 263 263 263 263 264 264 264 263 264 264 264 264 264 264 264 265 265 265 265 265
265 262 265 257 261 262 266 268 266 260 262 270 271 273 272 272 271 268 269 269 269 267 267 267 267 267 268 269 268 268 268 267 268 267 268 267 266 265 264 264 263 261 262 262 261 262 261 261 261 261 262 262 263 262 262 262 262 262 262 263 263 263 262 263 263 263 263 263 263 263 263 263 263 263 263 264 264 264 264 264 264 264 265 265 265 265
263 265 262 263 259 263 265 263 258 260 269 269 271 272 274 273 271 269 267 269 269 268 268 266 267 268 268 268 268 268 266 266 267 268 268 266 266 264 263 262 263 262 262 261 260 260 260 260 261 261 262 263 262 262 261 261 262 262 262 263 262 262 262 262 262 262 262 262 263 263 263 263 263 263 263 263 263 263 263 264 264 264 265 265 265 266
270 263 260 264 261 262 264 264 264 271 271 268 266 268 270 267 267 266 261 265 268 269 268 267 267 268 267 267 267 265 265 265 263 264 267 265 265 264 263 263 263 263 262 261 261 260 261 262 261 261 261 261 262 261 261 261 262 262 262 261 261 262 262 261 261 261 262 262 262 262 263 263 262 262 263 263 263 263 263 263 264 264 265 265 265 265
272 268 267 266 262 259 264 263 263 263 259 260 268 271 273 272 271 270 266 263 268 269 270 268 267 267 265 265 264 264 264 261 258 260 264 264 264 263 263 264 264 263 261 260 260 261 261 260 261 261 261 260 260 261 261 261 261 261 261 261 261 261 261 260 260 261 261 261 262 262 262 263 263 262 262 262 262 263 263 264 264 265 265 265 265 265
268 269 264 263 261 262 261 258 263 261 265 267 268 271 272 272 271 271 266 260 268 269 269 269 266 266 265 263 263 263 260 256 257 260 263 264 263 263 262 263 263 262 260 260 260 260 259 260 260 260 260 260 259 260 261 261 261 260 260 260 260 260 260 260 260 261 261 261 262 262 262 263 262 262 262 262 263 263 263 263 264 265 265 265 266 266
263 257 261 263 262 261 260 257 254 254 254 265 270 271 272 272 271 268 255 256 268 269 269 268 265 264 263 263 262 261 259 255 256 259 263 263 263 263 262 262 261 260 259 260 261 260 259 259 258 258 258 259 259 260 261 261 260 260 259 259 260 259 259 260 260 261 262 262 262 262 262 262 262 262 262 262 263 263 263 264 264 265 265 266 266 266
256 261 258 261 261 266 264 261 263 260 265 269 270 272 271 273 271 258 253 261 269 269 269 267 265 264 263 262 262 259 261 261 261 262 263 263 262 262 262 262 260 259 259 259 259 260 258 258 258 258 258 259 260 260 260 261 260 259 259 259 259 259 259 261 261 261 261 262 261 262 262 262 262 262 262 263 263 263 264 264 265 265 265 265 266 266
261 260 261 260 263 261 264 263 262 267 267 271 272 272 271 267 255 256 266 271 269 268 267 266 264 264 263 262 262 260 260 262 263 262 261 261 261 261 261 259 259 259 259 260 259 258 257 257 257 258 258 259 260 260 260 260 259 259 259 259 258 259 261 261 261 261 261 261 261 261 261 261 262 262 263 263 263 263 263 264 265 265 265 265 265 265
265 261 260 263 264 266 263 263 260 258 265 273 272 270 270 261 263 269 270 270 269 267 266 265 264 263 262 261 261 260 260 261 261 261 260 261 260 259 258 258 257 257 257 258 257 257 257 256 256 257 257 258 259 260 260 259 258 258 258 258 259 260 261 261 261 261 261 260 260 261 261 261 262 262 262 263 263 263 263 264 264 264 265 265 265 265
264 263 259 262 264 264 261 258 258 269 271 273 271 265 268 269 271 271 269 265 267 266 265 263 263 262 262 261 259 260 260 260 260 260 259 259 258 258 257 257 257 257 257 257 257 257 257 256 256 256 257 258 259 259 260 259 258 258 258 258 260 260 261 261 261 260 260 260 260 261 261 261 262 262 262 263 263 263 263 263 264 264 264 264 264 264
271 264 264 265 261 261 262 266 272 273 272 273 273 270 271 271 272 270 268 266 265 265 265 262 261 262 262 261 260 260 259 260 259 259 257 257 257 256 256 256 256 256 256 256 256 257 256 256 255 256 256 257 258 259 259 259 258 258 257 259 260 260 260 260 260 259 259 259 260 260 261 261 261 262 262 263 263 263 263 264 264 264 264 264 264 265
272 272 272 268 264 269 274 274 274 273 272 272 272 272 271 271 271 269 267 265 265 265 264 262 261 261 261 261 259 259 259 259 257 257 257 256 256 256 256 256 256 256 256 256 256 256 256 256 256 255 255 256 258 258 259 259 258 257 258 259 260 260 260 259 259 258 259 259 260 260 260 260 261 262 263 263 264 264 264 264 264 264 264 265 265 266
270 270 270 266 271 268 263 272 272 271 272 272 271 272 272 272 270 268 266 265 265 264 263 262 262 261 261 260 260 259 259 258 257 256 256 255 255 255 255 255 255 255 255 255 255 256 255 255 254 254 255 255 257 258 258 258 258 259 259 259 260 260 260 259 258 258 259 258 259 260 260 260 260 262 263 263 263 264 264 264 264 264 264 265 266 266
266 272 270 269 269 267 268 271 271 272 272 272 271 270 269 269 268 267 267 266 265 264 262 262 262 260 260 259 260 258 257 257 256 255 255 254 254 254 254 254 254 255 255 255 255 255 255 254 254 254 255 255 257 257 258 258 258 259 259 259 260 259 259 258 258 258 258 259 259 259 260 260 262 262 262 263 264 264 264 265 265 265 265 266 267 267
271 271 263 268 266 269 273 273 272 272 271 270 271 271 270 268 266 266 265 264 263 262 261 262 262 260 260 259 260 258 256 256 256 255 254 254 254 254 254 254 254 254 255 254 255 255 254 254 254 254 255 255 257 257 257 257 258 258 259 259 259 259 258 258 258 258 258 259 259 259 261 261 261 261 262 263 264 265 266 265 266 267 268 269 270 270
270 266 269 267 266 265 265 268 269 263 263 268 270 270 269 267 266 265 264 262 261 260 260 260 260 260 260 260 259 258 255 255 255 255 253 253 253 254 254 254 254 254 254 255 255 255 254 254 254 254 255 256 257 257 257 257 257 258 259 259 259 259 258 258 258 258 258 259 259 260 261 261 261 261 262 263 264 265 266 269 272 271 270 270 275 277
269 270 268 263 262 264 270 271 270 269 269 270 270 270 269 266 265 263 261 261 261 261 261 259 258 258 258 259 259 257 256 255 255 255 253 253 253 254 254 254 253 253 254 254 254 253 253 253 254 254 254 255 256 256 256 256 257 257 258 259 259 259 258 258 258 258 259 259 260 261 261 261 261 262 262 263 264 265 265 266 268 273 274 275 276 277
Wind_Speed
1 8 4 1 5 5 4 3 2 2 3 1 1 2 8 8 9 5 6 12 3 5 3 0 5 5 7 7 4 6 12 13 12 11 9 7 6 4 4 3 4 4 4 3 5 4 3 4 4 4 5 5 5 6 7 8 9 9 10 9 9 9 7 5 5 5 5 6 6 3 4 6 5 6 8 7 7 6 6 6 6 6 6 5 6 6
5 7 4 4 4 4 5 1 2 1 1 1 5 4 7 4 11 6 6 6 2 2 5 2 4 7 5 5 4 5 12 10 11 10 9 7 5 4 4 4 4 3 1 4 4 7 5 6 7 7 8 8 9 11 11 12 12 11 11 9 9 9 6 5 4 5 5 5 5 6 6 5 6 6 7 7 6 6 6 6 6 6 6 5 5 5
6 3 3 4 4 1 3 2 1 0 3 2 2 4 4 8 8 12 8 2 1 3 11 4 6 4 5 4 4 4 8 6 6 9 7 7 6 4 4 4 4 3 3 4 4 7 6 7 7 8 9 8 8 10 10 10 11 12 10 8 8 7 5 4 5 6 7 6 5 4 5 5 5 5 6 6 6 5 6 7 6 6 6 6 6 5
5 2 4 1 1 1 1 3 3 5 2 4 7 5 8 5 5 16 6 3 0 0 9 3 6 4 2 4 5 3 4 6 6 7 7 6 6 5 4 4 4 3 4 6 7 10 8 7 8 8 8 10 10 10 10 11 12 10 11 11 11 8 5 5 7 9 10 10 9 6 6 6 5 6 5 4 5 5 5 6 6 6 7 6 5 6
1 3 0 1 5 4 2 3 2 4 7 4 3 5 6 7 6 6 13 14 10 4 3 3 6 2 2 4 4 2 1 4 3 5 4 5 5 4 3 4 4 5 6 8 9 10 9 9 9 10 10 10 10 10 11 11 12 12 15 15 16 9 7 9 12 12 10 10 8 7 7 5 5 3 4 3 4 5 4 5 4 6 5 6 7 6
3 1 0 2 3 6 4 6 1 1 7 6 6 8 9 6 9 11 11 12 11 8 1 2 5 3 3 3 4 4 1 3 1 3 4 5 5 3 3 4 4 5 5 8 8 8 8 7 7 8 8 9 9 10 10 11 14 16 15 16 16 10 12 14 14 14 12 10 9 9 9 10 7 8 8 8 7 5 5 5 5 5 6 6 6 6
2 2 4 1 1 4 3 1 2 1 5 4 9 6 5 6 6 10 15 8 9 9 3 1 5 6 4 7 7 4 3 4 1 3 3 4 4 3 3 3 5 5 5 5 4 5 8 9 9 9 10 11 10 10 9 11 13 15 14 14 13 12 11 12 12 13 12 12 10 10 10 10 9 9 7 7 6 6 6 5 5 6 5 4 5 5
3 5 6 4 3 3 4 5 2 2 4 6 3 2 4 9 10 13 13 8 10 1 5 1 3 3 3 9 9 6 6 5 2 2 3 3 3 3 3 3 4 4 4 6 6 7 8 9 9 10 9 9 7 5 8 10 11 12 12 12 13 12 12 11 12 13 13 12 11 12 12 11 11 11 12 11 8 6 4 6 6 6 5 5 4 4
2 5 3 5 2 2 2 2 5 2 2 10 7 4 10 8 11 13 10 11 3 2 7 5 1 1 4 2 7 7 6 6 3 2 2 2 2 2 2 2 2 3 4 5 7 7 8 8 6 6 7 6 3 5 8 9 9 10 10 12 12 13 14 13 16 15 15 15 14 12 11 11 11 13 12 11 9 7 5 5 6 5 5 5 3 3
2 2 4 1 1 4 3 5 4 5 4 5 5 6 5 7 7 8 8 7 5 2 8 7 1 3 7 4 7 5 5 7 4 2 1 2 2 0 1 0 1 1 2 1 1 3 4 4 4 4 7 6 3 4 5 6 8 8 8 10 11 12 12 13 15 14 16 16 16 15 15 16 15 14 13 11 11 9 6 7 6 5 5 5 3 4
5 5 4 3 2 1 2 5 2 5 8 5 6 8 12 7 5 3 4 2 5 1 5 5 1 3 9 5 9 11 8 4 4 1 2 1 0 0 2 0 1 1 2 2 2 3 3 4 4 5 6 3 2 3 4 5 6 7 7 8 10 11 11 12 13 14 16 15 15 15 15 17 18 17 15 14 12 9 8 7 7 5 6 4 5 5
8 1 1 1 2 3 1 5 2 1 0 4 4 4 11 12 6 3 2 4 1 10 5 4 2 2 5 4 4 1 3 6 5 1 1 2 0 1 2 2 2 2 3 3 3 3 3 4 3 4 5 3 4 4 6 6 6 7 7 8 9 9 10 10 11 13 16 15 14 15 16 16 16 17 14 14 14 13 11 8 7 6 5 5 6 4
6 1 2 6 2 7 4 5 4 2 2 6 6 8 10 10 7 8 6 9 6 10 8 1 3 7 6 4 4 6 5 4 3 4 2 1 1 3 3 2 3 3 3 4 4 4 3 5 7 8 6 3 4 5 7 8 7 7 7 8 8 9 10 10 11 13 14 16 15 15 15 13 14 15 16 16 15 13 11 7 6 6 6 6 6 5
7 6 3 6 3 1 3 6 10 12 8 10 8 2 7 6 5 11 7 4 7 7 4 3 1 8 11 5 6 9 6 5 5 3 3 1 2 4 5 4 4 4 4 4 5 5 6 6 6 6 6 5 5 5 7 7 6 6 7 6 7 9 8 9 11 13 14 14 16 16 14 13 12 13 14 15 14 10 5 4 6 7 7 8 7 5
7 9 2 3 3 2 2 2 4 8 8 8 2 0 3 1 4 15 4 11 15 16 13 1 4 5 7 4 9 7 5 6 4 2 3 2 2 4 5 5 5 6 5 4 5 6 7 8 8 9 8 6 5 6 7 6 6 6 7 5 6 8 7 9 11 11 13 15 15 15 15 13 11 12 13 13 7 5 6 6 8 9 8 8 5 3
4 7 7 1 4 2 1 1 1 3 7 1 2 3 5 6 1 9 10 8 9 14 9 1 4 3 5 4 4 4 4 4 3 2 2 4 4 5 6 6 7 7 7 6 7 8 7 7 8 8 9 7 6 7 8 7 7 7 7 6 6 7 8 10 11 12 13 15 13 15 16 13 15 15 14 11 9 7 7 9 10 10 7 4 5 6
5 6 1 10 2 4 1 5 6 2 4 4 4 6 5 3 2 8 9 5 10 8 12 3 6 1 1 3 2 5 2 1 1 1 3 7 4 5 6 6 8 8 9 9 9 9 9 8 8 9 9 7 6 7 8 8 7 7 7 5 6 7 8 10 10 12 13 13 17 17 14 12 13 14 15 13 13 14 11 11 8 4 6 7 6 7
1 16 11 3 4 1 2 3 5 1 1 4 4 7 8 2 6 5 10 2 4 12 11 3 8 9 5 8 5 4 3 6 9 7 9 7 4 6 7 12 11 12 11 10 9 9 9 9 10 10 8 7 7 8 8 8 6 5 5 4 7 8 11 10 11 13 15 16 16 14 13 13 12 12 12 13 16 16 15 8 6 7 7 8 8 9
2 10 3 1 3 8 7 5 6 1 2 3 7 1 6 9 11 3 2 11 9 7 12 10 11 10 4 8 1 3 9 11 13 15 16 16 9 8 12 13 12 11 11 11 12 12 11 10 11 11 11 8 7 8 8 7 6 4 3 4 6 9 9 10 12 13 13 14 12 11 11 11 11 11 13 14 12 9 9 11 10 9 9 9 9 10
1 2 6 0 2 5 5 4 10 8 4 0 2 5 1 2 7 8 5 4 5 14 9 15 9 10 1 4 2 7 7 10 13 13 15 9 10 12 14 13 14 13 12 13 13 13 12 11 11 11 10 8 8 9 8 7 5 4 3 5 7 8 9 11 13 13 14 12 12 13 12 12 13 13 11 10 11 12 12 11 9 10 10 10 10 10
2 3 7 6 2 6 8 3 8 8 6 7 6 3 6 2 2 5 3 2 4 6 8 15 15 7 7 3 6 4 6 9 8 10 8 8 11 14 14 14 13 13 14 14 14 14 13 12 11 11 8 6 7 8 8 7 4 3 3 6 8 9 11 13 13 13 13 12 12 15 15 15 11 11 11 13 13 11 10 9 10 9 9 11 11 11
1 1 6 13 12 7 7 4 5 5 4 3 1 7 6 8 8 10 13 2 2 1 9 10 14 12 6 5 2 8 12 10 6 7 8 9 13 13 12 13 13 14 15 16 16 14 14 12 11 9 6 6 8 10 10 7 2 3 6 7 8 9 10 12 13 14 14 12 11 15 13 11 12 12 12 10 8 10 11 10 10 10 11 11 10 8
1 2 1 8 7 12 16 8 1 1 1 4 3 5 2 1 2 2 10 14 11 8 7 10 14 9 2 1 2 11 18 11 6 8 14 15 14 14 13 13 14 14 16 16 17 15 13 11 9 7 9 10 10 11 10 4 4 6 7 9 8 10 12 13 14 15 13 13 14 15 14 12 12 10 8 9 10 10 11 11 10 9 11 11 9 10
5 1 7 12 11 7 4 5 2 5 1 6 1 3 5 8 2 5 9 13 10 10 9 10 11 8 2 2 4 18 17 12 14 17 20 17 13 15 17 17 18 17 16 16 15 13 13 10 8 9 10 10 10 12 6 4 6 7 8 9 10 13 14 14 15 13 11 13 15 14 14 13 10 9 10 11 11 13 12 12 11 10 11 12 11 10
4 3 2 10 10 12 11 2 2 3 1 5 5 3 0 4 8 5 4 1 5 6 9 11 13 13 3 10 19 19 13 18 15 16 15 17 17 16 16 16 17 17 17 16 16 16 15 13 11 10 9 11 12 8 5 7 7 8 9 9 11 12 13 15 14 14 14 14 15 15 14 14 14 12 11 12 12 14 13 12 12 10 11 10 11 10
0 4 3 5 12 17 19 20 20 21 16 11 6 10 8 10 11 10 7 3 4 6 13 10 14 12 18 21 24 15 13 15 15 16 14 13 17 18 17 18 17 16 16 15 17 17 17 14 12 11 13 13 9 6 6 7 8 9 9 12 13 14 15 15 13 13 14 13 14 14 15 14 12 13 14 14 13 13 13 12 12 12 11 11 12 13
1 1 2 4 5 9 11 12 14 14 15 13 20 16 11 7 7 2 3 6 8 12 11 9 14 24 24 25 20 15 19 22 21 19 17 18 15 16 18 18 18 19 18 20 20 19 15 16 16 15 16 15 6 6 6 7 9 12 14 12 10 10 13 16 14 14 13 14 14 13 13 14 14 13 13 12 12 12 12 13 13 13 14 13 12 10
2 2 6 7 8 13 13 15 18 14 14 16 15 13 10 9 6 6 8 11 13 14 18 11 19 22 24 22 14 22 23 23 21 18 19 16 18 20 21 22 22 19 19 19 19 16 16 16 15 16 17 15 7 8 11 12 13 12 11 13 15 16 16 13 14 13 13 13 13 12 13 12 12 12 12 12 12 12 11 11 12 13 13 14 13 10
1 1 7 3 13 7 10 14 16 12 6 10 10 6 7 9 10 13 11 12 12 8 16 24 25 24 22 14 20 22 22 24 20 23 20 20 21 23 22 21 21 22 23 19 15 16 17 19 18 18 18 16 13 15 13 12 12 12 12 10 12 14 16 15 13 13 13 13 13 12 11 12 11 11 12 11 11 10 11 11 12 12 12 12 10 8
0 4 5 3 11 16 14 12 11 9 10 12 6 6 4 9 9 8 9 11 12 14 18 22 23 20 15 15 21 22 22 18 20 17 21 27 27 26 21 20 23 22 20 18 18 19 20 21 22 22 22 19 16 15 15 15 15 13 11 12 13 16 16 13 12 13 13 14 13 12 12 12 12 11 12 13 12 11 11 11 11 11 10 10 10 10
3 7 7 4 7 14 12 6 6 12 13 15 12 4 11 14 14 13 11 13 14 14 16 18 17 16 10 14 20 21 16 17 19 22 25 25 28 23 21 24 24 20 18 20 23 25 25 24 21 19 20 19 18 18 16 16 13 10 11 13 15 16 15 13 13 13 14 14 13 11 11 11 12 13 14 13 13 12 13 13 10 10 10 11 11 11
3 6 2 3 9 12 7 14 17 17 17 5 5 12 13 12 12 13 15 17 18 22 21 16 13 12 14 19 18 15 19 24 27 27 28 26 20 19 23 22 22 20 19 22 23 22 20 21 20 19 19 19 20 19 17 14 10 13 14 15 15 14 13 12 13 14 14 14 14 13 13 13 14 14 14 13 13 13 13 13 12 12 12 12 12 12
0 2 7 4 9 12 13 15 19 17 10 5 4 5 13 11 9 13 13 16 15 17 12 13 14 16 20 20 21 24 27 24 22 23 26 22 19 21 22 24 21 20 20 20 21 20 20 20 19 21 21 19 17 17 14 14 15 15 16 15 15 14 13 14 14 14 15 14 14 14 14 14 14 14 13 13 14 13 13 13 13 13 14 14 13 12
1 3 4 1 2 9 19 17 13 8 12 8 5 7 13 18 20 19 20 21 20 7 8 14 17 20 21 23 29 29 28 23 23 24 18 14 18 20 21 23 18 19 22 19 20 19 19 19 19 19 18 18 17 15 15 15 15 14 14 14 14 14 14 14 14 14 14 14 14 15 14 14 14 13 14 14 14 13 13 13 13 13 12 12 12 11
4 1 5 2 2 10 9 9 12 8 8 1 7 9 10 14 18 21 25 19 15 7 16 20 22 24 26 24 25 26 24 22 21 19 15 15 19 18 21 23 18 19 19 18 20 20 20 20 18 17 18 16 15 16 16 15 14 14 14 15 15 15 15 15 15 15 15 15 15 14 14 14 14 14 14 14 14 13 13 13 13 12 11 10 10 11
3 4 4 3 3 5 7 6 9 12 5 4 2 15 16 10 9 18 19 11 6 8 18 19 24 25 27 28 25 20 23 24 16 9 11 16 19 18 21 21 19 19 20 18 20 21 19 19 19 18 19 17 17 16 16 15 15 16 15 15 15 15 15 15 15 15 15 15 15 15 15 15 14 14 14 14 14 13 13 12 12 13 12 11 11 10
1 1 3 4 2 6 9 11 11 15 10 7 11 11 15 17 19 18 19 19 4 13 18 23 27 26 26 25 21 21 25 20 11 7 12 17 19 18 19 21 18 21 19 21 19 18 18 18 20 21 20 20 18 17 17 16 16 16 16 16 15 15 15 15 15 15 16 15 16 15 14 14 14 13 13 14 13 13 12 12 13 11 10 11 10 10
1 2 2 5 4 3 9 14 11 9 9 2 6 12 11 15 20 19 11 12 5 16 19 24 27 26 27 24 23 25 23 18 19 15 17 20 17 19 21 20 20 18 18 20 19 18 17 20 19 19 18 19 18 17 16 17 16 16 16 16 16 16 16 16 16 16 16 15 16 15 14 13 13 13 13 13 13 13 13 11 10 10 10 10 10 10
4 3 3 4 3 6 6 4 9 7 4 6 13 14 15 14 21 18 12 14 9 20 23 24 26 24 23 21 23 20 18 18 18 16 19 24 21 22 23 20 20 18 20 20 20 20 19 18 19 19 19 18 18 18 19 18 17 16 16 16 16 15 16 16 17 17 17 16 16 15 13 13 13 13 12 13 13 12 12 12 11 11 11 10 9 10
6 4 3 3 2 3 3 2 8 6 9 8 15 18 14 16 13 8 19 15 19 23 23 24 19 19 18 20 18 15 13 16 20 21 24 23 21 21 22 22 22 21 20 21 18 19 18 18 18 19 20 20 19 19 19 17 16 17 16 17 15 16 16 17 18 17 16 16 15 14 13 13 12 12 12 13 13 11 11 10 11 10 10 9 9 9
3 5 5 3 6 8 6 6 3 8 7 10 12 16 13 16 9 13 10 18 23 23 22 19 18 17 16 18 15 14 13 13 17 21 22 23 23 22 21 19 19 19 20 20 18 21 17 17 16 18 20 17 18 18 17 16 17 17 16 16 15 17 17 17 17 17 16 15 15 15 14 12 12 14 14 12 12 12 11 9 10 10 9 9 8 8
3 3 2 2 8 8 6 7 8 6 3 12 16 15 16 17 14 19 13 16 20 22 19 17 18 17 19 18 14 13 16 17 17 18 21 21 21 21 20 20 20 19 19 18 19 20 18 17 18 20 19 18 18 18 17 17 17 16 17 16 17 19 17 17 16 15 16 17 16 15 14 13 13 12 12 12 11 12 11 10 9 9 9 8 8 9
3 1 4 6 6 4 1 5 7 11 2 19 23 15 9 12 9 10 17 17 16 16 16 16 14 17 16 18 16 15 18 17 17 20 21 20 21 21 21 21 20 21 21 19 19 20 19 18 18 19 20 18 18 17 17 17 18 17 17 17 19 17 16 16 16 16 16 15 14 14 14 14 14 13 11 11 11 12 12 10 9 9 8 8 9 9
3 3 3 2 1 7 6 4 3 6 13 16 16 11 10 6 10 11 10 14 15 14 14 14 13 14 17 14 18 18 17 18 19 20 20 19 19 18 19 18 19 19 19 18 18 19 21 18 18 18 19 18 17 17 16 16 17 18 19 19 17 16 15 15 15 15 15 14 14 14 14 14 14 13 11 11 11 11 11 11 10 9 7 8 7 8
2 2 2 5 3 2 5 7 12 9 7 11 11 4 10 10 9 9 10 12 14 12 12 11 16 16 15 17 16 16 16 16 19 19 19 20 19 19 19 20 20 20 20 19 19 20 18 18 20 18 19 18 19 17 15 16 17 20 20 18 16 16 16 16 16 15 15 15 14 14 13 13 12 12 11 11 10 10 9 10 9 9 8 8 7 7
2 2 1 1 4 8 12 15 7 6 7 12 1 3 7 10 8 9 12 13 11 12 11 12 15 15 16 15 16 15 15 16 19 19 18 18 18 17 17 18 18 18 19 19 19 19 19 17 17 17 19 20 19 17 15 16 16 18 17 16 15 15 15 16 16 16 16 15 14 14 14 14 13 12 12 12 9 9 8 8 8 8 8 7 7 7
3 1 1 3 3 8 6 1 10 9 11 12 3 7 5 7 8 9 10 10 12 12 13 13 13 14 15 15 14 16 17 17 17 17 16 16 17 17 17 18 19 18 18 19 19 19 18 17 17 19 20 20 19 17 16 15 14 13 13 15 14 14 14 16 16 16 15 14 14 13 12 13 11 12 11 10 9 9 8 7 7 7 7 6 7 7
4 2 2 2 5 3 10 13 8 5 12 9 4 10 11 11 9 9 10 10 10 11 12 13 13 13 13 13 14 15 16 16 16 17 15 15 15 15 16 17 18 18 18 17 18 18 17 17 18 18 19 18 17 17 17 15 13 14 15 14 14 14 14 15 15 15 14 15 13 11 11 11 15 15 11 11 10 9 9 8 8 7 7 7 7 8
4 1 3 3 5 10 12 5 7 15 3 1 8 6 8 9 9 11 10 11 10 11 13 12 11 13 13 13 15 14 15 15 15 15 15 15 14 15 16 17 17 17 17 19 18 18 17 18 17 18 17 17 15 15 14 15 15 14 15 14 13 14 15 15 16 15 14 13 12 12 11 11 10 10 11 13 13 10 7 7 9 8 9 8 6 6
2 0 3 2 8 7 5 8 10 11 12 13 12 11 12 9 12 12 13 12 10 12 12 13 13 12 10 12 13 13 14 14 15 15 16 14 15 16 17 17 17 17 17 16 15 16 17 16 17 17 17 15 15 14 14 14 14 14 13 14 14 16 16 16 15 14 13 12 11 11 11 11 11 10 10 10 10 13 14 12 15 10 7 8 15 20
2 3 1 1 1 9 10 7 5 5 9 7 8 9 8 6 8 10 10 11 12 13 13 13 15 16 14 13 12 13 14 14 16 15 15 14 15 15 15 17 17 16 16 17 17 17 16 17 17 16 16 15 15 14 14 14 14 14 14 14 14 15 16 16 13 12 12 12 11 13 12 11 11 10 10 9 9 9 10 12 13 16 16 16 18 19
Wind_Direction
63 69 64 327 298 293 282 212 189 249 185 238 295 220 268 274 274 262 269 268 12 323 240 253 332 26 356 14 36 97 104 105 107 102 105 103 94 88 80 79 88 74 82 63 62 21 10 2 350 351 346 343 7 5 355 344 334 320 312 310 309 308 303 312 315 313 306 307 298 288 292 294 292 290 294 292 290 296 292 296 299 299 295 295 297 294
64 51 343 262 255 258 272 254 173 15 99 258 296 288 291 275 288 272 272 304 352 76 274 27 68 9 7 2 41 98 98 100 108 106 103 101 97 91 78 67 65 69 23 47 31 13 8 6 2 5 1 360 6 355 349 338 331 323 315 311 313 317 317 308 296 296 296 280 280 282 281 272 281 293 293 290 291 291 301 306 302 301 299 298 292 294
32 57 280 277 272 96 53 66 81 117 319 352 301 289 320 285 270 272 259 282 252 32 285 80 62 18 12 35 45 81 98 106 102 108 115 110 96 79 67 65 70 51 47 35 28 8 4 3 8 14 4 4 354 341 337 329 326 321 317 314 318 320 310 291 301 315 314 307 297 290 285 289 285 264 267 275 278 298 302 300 302 303 307 301 300 299
15 284 276 346 54 136 278 41 31 8 20 320 337 337 286 284 22 317 275 228 150 80 280 27 104 75 40 45 50 19 91 113 111 111 109 103 97 79 63 80 60 46 46 22 14 2 4 10 10 7 1 355 345 339 335 335 334 331 331 325 324 318 296 307 315 322 321 311 304 295 281 286 271 274 283 284 291 290 291 296 295 303 294 296 295 296
215 257 115 67 32 57 354 343 31 21 325 295 264 252 282 298 267 208 292 312 302 265 236 84 97 136 147 121 92 83 91 101 98 87 79 85 89 88 81 72 64 48 30 21 7 1 6 6 6 3 354 350 345 341 340 342 345 346 342 339 330 314 324 328 325 321 318 315 311 309 309 298 297 280 275 286 287 277 278 290 294 283 290 295 291 288
316 278 189 339 16 32 33 350 331 29 318 312 250 227 240 272 292 288 290 318 319 320 177 60 340 251 167 182 171 172 231 111 140 95 104 107 84 75 75 59 62 38 56 22 8 360 360 357 349 353 352 347 345 344 349 357 357 353 347 344 342 340 340 338 334 329 325 320 311 315 315 308 302 301 306 304 292 290 287 277 279 290 281 275 282 286
232 343 69 351 59 13 47 7 289 91 305 344 284 192 234 273 279 289 298 332 298 300 280 34 241 275 150 217 197 209 190 155 184 83 97 88 71 61 59 56 35 35 27 14 12 1 357 352 349 351 353 348 348 347 5 1 356 351 344 342 338 337 336 333 330 327 325 318 312 309 302 292 284 286 277 275 273 268 274 274 282 275 276 274 276 284
351 324 10 31 34 32 0 2 286 157 331 281 243 117 298 308 295 290 292 268 253 324 298 211 161 213 259 214 201 190 185 183 168 135 92 84 68 52 51 49 37 34 23 2 1 360 355 350 348 345 341 336 333 351 5 356 352 347 341 340 336 335 331 331 328 330 332 326 324 322 317 308 306 302 296 287 279 271 267 280 274 278 277 273 268 280
76 299 25 337 23 25 326 262 288 147 203 271 294 333 300 269 272 281 283 278 255 351 291 310 23 310 253 277 152 172 192 207 195 156 113 81 83 60 28 55 53 32 25 360 360 352 347 338 333 320 320 306 330 11 360 353 344 342 340 338 338 340 339 337 338 338 342 339 332 326 318 312 308 304 299 291 281 278 277 271 269 273 275 276 274 291
319 164 274 176 160 280 245 294 281 159 318 277 299 295 253 275 262 250 263 301 328 68 285 275 278 249 264 153 181 213 254 222 197 152 131 131 93 88 307 85 36 22 12 310 318 306 312 304 289 296 308 314 337 357 347 341 339 336 334 331 336 338 340 338 339 341 340 336 330 323 318 314 308 306 301 292 282 274 267 265 266 264 272 272 294 298
277 298 168 122 248 223 283 287 242 224 241 315 340 334 315 297 282 345 85 35 353 322 248 251 256 135 284 192 195 186 219 167 162 177 166 194 170 273 302 166 350 274 290 276 282 303 304 294 287 290 306 274 285 309 323 330 329 326 325 326 330 332 334 337 337 341 335 332 326 319 316 312 309 304 299 294 283 270 265 259 258 261 259 264 274 276
332 338 111 266 54 323 141 313 315 201 119 17 345 330 328 328 329 360 340 43 43 288 263 245 161 84 288 274 202 223 101 121 145 160 184 281 232 277 295 226 269 267 276 285 288 281 271 266 277 305 317 270 284 308 325 329 326 324 323 322 322 325 331 331 335 338 333 327 321 314 309 307 305 302 297 291 284 274 263 254 261 265 272 271 266 260
340 181 283 325 274 54 319 329 296 315 359 6 333 5 4 318 359 317 14 333 288 276 287 222 14 318 234 244 172 158 169 164 159 143 182 239 242 268 268 252 293 268 280 266 274 290 299 327 336 337 318 267 297 309 323 327 323 318 318 316 316 320 329 331 339 333 327 324 318 311 304 299 303 301 299 291 282 270 267 261 271 276 277 275 273 257
280 291 349 299 44 334 67 27 334 348 342 341 341 324 10 328 317 295 307 256 281 269 259 289 40 254 279 295 160 159 173 167 160 175 170 193 223 275 284 270 283 277 274 274 289 315 330 326 325 317 295 250 267 295 314 314 311 307 308 303 305 313 322 329 330 327 324 320 315 308 298 297 298 299 300 295 280 268 259 260 275 281 284 280 263 260
342 349 311 10 340 331 68 99 311 265 302 278 163 128 220 204 311 309 331 309 297 300 309 299 5 227 301 275 168 144 155 154 159 174 173 266 224 272 269 250 272 268 278 283 308 324 328 320 313 310 295 264 268 297 312 310 304 305 304 296 302 310 321 328 325 324 322 317 312 304 299 293 297 302 302 298 297 307 302 296 290 287 279 269 275 294
236 238 264 232 247 45 14 276 173 328 300 274 179 111 42 292 178 275 281 277 293 299 304 330 227 218 253 350 124 141 141 131 158 88 214 270 256 279 281 268 279 298 313 314 320 323 314 302 296 293 286 264 273 300 307 307 302 302 300 296 299 312 320 323 322 321 318 313 305 299 294 299 305 304 301 295 294 288 279 280 282 280 280 286 305 304
337 287 242 320 334 177 101 344 320 109 350 287 37 312 264 252 208 278 290 287 306 313 275 186 311 321 313 210 272 191 169 222 144 224 276 296 251 256 268 296 315 322 323 320 319 313 301 293 284 284 275 259 271 294 300 298 298 294 293 295 302 312 316 316 318 315 313 308 304 298 293 297 299 300 299 303 308 303 297 288 282 297 302 300 295 291
138 283 303 272 331 337 245 251 257 247 277 34 345 286 292 151 163 128 287 317 305 293 293 112 282 305 333 300 166 228 269 328 331 330 319 324 311 294 318 335 331 323 318 314 305 297 290 285 287 287 270 254 273 292 294 292 288 272 272 290 308 315 317 318 318 317 314 308 300 292 292 292 294 297 302 307 305 300 296 305 312 303 300 298 296 291
100 305 327 310 261 288 327 14 323 353 46 236 259 303 23 336 340 326 44 310 299 273 296 300 305 293 231 284 124 277 357 333 330 335 337 342 344 328 327 325 317 314 315 315 312 309 301 291 289 289 278 266 279 291 291 287 278 266 268 294 312 316 318 319 318 313 308 302 294 292 291 294 301 305 302 294 290 305 314 303 298 300 299 299 293 288
347 256 296 7 57 295 314 43 333 313 334 10 336 352 225 17 292 322 208 275 351 294 303 290 295 305 194 269 45 23 324 332 321 329 339 321 317 324 323 319 319 319 317 315 313 308 299 290 287 284 277 276 290 298 295 289 274 272 294 317 320 318 320 317 314 312 307 301 301 304 305 306 301 293 295 306 310 301 295 296 304 311 308 297 292 283
284 158 270 278 327 5 345 356 303 309 319 332 20 326 350 294 249 305 324 250 261 292 295 304 307 304 314 68 61 330 327 320 323 320 308 312 315 313 314 317 319 318 319 316 312 306 300 293 289 282 273 280 297 299 296 288 278 296 331 327 327 325 321 313 309 305 304 304 302 303 297 292 295 304 305 300 300 307 312 318 313 306 297 293 283 280
24 13 244 303 329 310 279 250 259 268 251 260 41 309 316 316 322 346 309 82 49 342 297 307 287 298 358 91 72 342 338 326 298 297 293 294 306 309 313 319 322 322 317 313 311 306 302 297 289 283 282 300 308 304 300 298 329 353 334 329 326 320 314 311 310 310 306 303 302 296 300 315 315 307 300 309 328 313 307 303 304 301 299 292 288 290
148 208 201 289 249 294 297 304 306 28 128 178 137 277 185 193 76 339 297 310 314 278 263 265 285 308 76 118 222 334 333 357 344 329 321 322 320 322 323 323 322 314 312 311 310 308 304 299 298 301 307 309 310 308 304 340 8 341 331 327 320 314 311 311 310 309 306 306 305 304 303 304 303 306 321 320 309 306 302 296 292 294 290 291 295 293
93 48 330 301 305 273 266 16 14 16 15 324 347 348 360 322 240 267 283 287 285 309 319 295 269 301 6 262 253 327 343 1 345 338 328 322 327 330 328 325 319 315 313 309 307 309 309 312 314 309 308 317 322 313 346 14 342 334 331 324 320 317 316 316 314 309 304 307 307 309 309 307 314 322 317 315 311 305 304 299 293 292 291 289 285 285
359 294 62 312 328 320 324 281 267 200 357 328 289 316 256 331 330 291 267 34 297 279 304 327 300 314 42 315 323 328 6 341 328 324 328 327 329 325 321 317 314 312 314 318 322 323 318 315 318 319 330 329 321 332 13 334 335 329 321 318 316 314 316 315 315 312 311 310 310 310 309 307 306 303 306 309 310 306 304 301 298 292 289 288 284 282
104 273 47 340 330 332 334 339 337 335 336 329 326 318 332 344 329 356 341 330 277 326 340 304 296 299 313 322 321 343 344 331 330 332 327 327 323 321 319 318 316 320 322 326 325 321 321 326 327 341 342 330 327 341 340 337 325 319 316 321 324 322 323 322 315 313 315 314 312 312 311 315 322 318 312 307 299 297 297 296 293 292 287 281 280 275
188 316 186 187 207 269 281 282 292 311 315 316 314 328 333 348 355 18 312 348 316 306 309 302 306 311 317 324 335 351 339 338 333 332 330 326 322 318 319 320 325 331 335 334 331 335 349 345 341 348 339 328 329 353 333 328 327 322 321 319 323 324 320 318 316 317 315 315 314 313 314 315 313 308 303 300 295 293 292 296 302 304 303 296 278 283
66 329 255 242 240 246 269 287 292 303 294 295 304 328 356 356 11 26 7 319 320 323 305 317 315 313 317 326 350 343 340 334 329 324 323 322 327 326 324 325 338 342 335 334 338 351 351 348 345 345 344 339 349 340 328 333 333 328 324 322 325 329 324 319 318 316 317 317 316 314 313 310 304 300 294 291 290 288 291 299 301 301 298 296 298 303
136 226 272 40 278 257 268 283 290 295 276 282 312 357 350 352 2 356 333 319 328 318 300 313 320 316 317 342 347 337 336 332 324 322 321 325 325 326 332 340 341 338 337 339 357 356 355 352 348 344 345 340 329 334 342 339 330 325 322 326 326 325 323 321 316 318 317 316 315 314 309 303 298 294 290 290 291 295 297 297 295 292 290 290 295 297
48 240 253 174 294 303 302 289 292 300 304 311 350 11 346 339 342 331 316 315 309 295 300 308 310 309 330 344 335 332 329 322 319 319 326 331 331 331 344 348 346 340 346 357 1 359 352 346 339 333 331 333 349 351 342 335 328 327 331 331 327 325 324 323 319 318 318 316 314 307 300 297 294 296 306 308 306 301 296 291 290 286 286 290 293 292
80 290 4 349 326 306 308 296 307 317 321 325 337 329 6 351 336 328 315 308 303 308 306 307 320 322 332 330 326 320 317 317 320 332 335 332 332 343 349 349 345 349 2 5 358 346 338 334 339 351 354 350 345 340 335 327 327 337 334 329 324 324 325 323 321 322 320 316 310 304 304 307 314 316 312 309 304 301 299 300 295 291 291 292 290 289
52 283 29 48 339 307 325 329 327 327 314 285 353 4 343 337 340 340 338 339 335 321 327 336 327 316 323 330 317 319 323 331 336 341 337 332 343 353 353 353 349 353 7 356 344 340 345 354 350 347 344 344 336 332 329 333 352 341 332 324 324 327 326 325 326 323 320 317 318 319 319 318 315 312 310 309 307 307 306 305 302 297 294 292 291 290
30 347 335 337 332 291 308 335 320 305 313 14 326 292 340 328 324 326 320 332 328 330 338 336 327 333 325 327 325 330 334 335 345 344 330 337 358 1 356 350 348 358 356 348 342 350 353 346 347 343 337 331 333 332 346 355 343 338 328 330 332 331 331 329 326 324 322 324 324 321 320 317 316 313 313 313 311 308 304 301 297 295 293 291 289 288
39 36 307 103 280 295 316 317 315 333 357 351 155 20 359 346 346 348 336 335 338 11 348 343 326 323 325 331 332 332 336 346 344 332 326 1 2 357 353 346 354 354 343 343 353 348 345 345 339 337 336 333 336 355 352 343 337 329 332 335 334 334 334 330 328 327 326 325 324 322 321 320 318 317 314 311 308 306 303 300 298 295 292 289 286 282
325 33 295 157 276 301 295 326 332 359 334 345 68 6 353 349 352 337 334 338 334 11 350 339 329 330 330 333 334 333 332 334 334 321 342 20 1 354 348 346 350 349 342 354 351 349 345 342 339 338 339 343 356 351 346 340 337 338 336 338 336 338 334 332 330 330 328 325 324 324 324 322 319 315 313 310 308 305 302 300 298 295 294 289 287 286
298 358 284 317 251 281 328 11 348 302 294 158 305 5 352 332 340 328 321 343 337 8 350 333 331 330 332 333 334 338 332 326 321 323 356 10 3 1 350 346 346 348 348 357 351 346 349 344 339 342 349 352 350 348 345 341 339 337 338 338 338 336 334 334 333 330 328 326 326 326 324 321 317 313 310 310 308 306 304 303 300 297 297 292 288 283
268 130 77 312 77 344 315 312 280 283 289 43 3 345 356 351 348 353 328 329 8 4 350 336 332 332 336 337 340 335 328 320 316 337 2 14 2 6 358 345 349 345 358 350 349 347 344 347 348 347 342 335 344 346 340 337 338 337 338 339 339 337 336 335 332 330 328 327 326 325 322 318 315 311 309 310 308 306 305 305 304 298 296 294 291 289
60 8 266 29 303 130 332 320 318 333 336 262 332 334 345 351 343 338 318 294 26 353 349 337 334 336 336 338 340 336 329 327 338 343 352 357 2 1 351 341 344 357 360 351 345 339 352 348 343 343 340 341 344 342 339 340 342 342 339 340 338 337 337 334 332 330 328 327 326 324 320 315 314 312 308 307 308 307 305 301 298 299 296 292 293 292
20 88 128 142 270 357 338 305 315 302 299 42 337 344 354 353 339 310 310 320 355 352 342 342 336 339 341 341 339 340 339 337 326 330 343 346 350 352 343 342 352 359 354 347 339 349 353 347 346 341 341 343 342 344 341 341 343 342 341 340 338 337 336 335 333 331 329 327 323 320 316 315 314 309 307 310 308 306 303 303 301 296 295 293 291 288
25 353 27 20 330 261 260 11 281 204 241 302 345 353 354 344 301 332 345 318 346 346 342 342 343 343 341 339 336 337 347 331 327 326 335 339 345 344 338 346 353 352 348 339 348 357 347 347 341 343 344 344 344 341 341 342 343 342 340 340 336 338 337 335 332 328 325 322 320 319 315 316 311 309 309 308 308 306 302 300 298 298 301 301 299 299
351 336 50 338 314 318 294 246 319 321 324 332 353 346 360 332 333 16 349 314 338 337 339 343 341 341 340 338 338 334 332 322 313 318 327 334 334 338 343 354 351 345 341 342 357 351 351 343 342 341 343 340 340 341 340 343 343 342 341 338 338 339 336 332 328 326 324 322 319 318 317 316 315 312 311 307 307 306 305 302 304 305 305 303 301 299
352 326 287 352 343 330 319 310 265 264 174 353 359 5 8 358 22 342 321 330 327 334 333 344 337 341 341 335 335 331 319 317 318 326 330 334 338 337 344 347 343 342 346 344 357 351 345 342 341 342 342 342 340 342 341 343 343 341 341 339 339 336 330 329 327 326 324 321 319 318 316 316 313 313 311 310 307 311 308 308 305 303 302 300 298 299
322 353 296 322 302 309 340 314 342 342 311 19 354 2 41 20 327 321 322 323 335 327 339 337 345 337 343 332 333 327 320 324 330 332 333 337 341 341 346 343 345 348 344 345 353 348 346 342 341 341 341 339 340 341 342 342 342 341 339 338 336 330 327 326 327 325 322 319 318 318 316 316 316 316 315 309 310 309 309 309 309 309 307 307 309 309
215 49 320 304 70 317 350 359 256 310 339 3 6 339 355 349 333 330 336 319 328 339 340 340 336 341 334 338 326 325 325 327 334 336 338 340 341 342 342 342 345 345 341 345 347 342 344 341 340 339 338 338 339 341 342 344 341 341 339 337 333 326 325 325 327 324 321 320 319 318 318 318 317 315 313 306 306 310 308 310 311 310 311 312 312 313
286 135 178 279 246 118 244 231 282 313 340 358 345 333 338 339 340 354 341 329 330 338 349 338 330 332 339 332 325 327 326 335 338 339 341 339 339 342 341 346 345 343 341 344 344 343 344 341 338 336 334 337 339 341 342 344 340 338 338 335 330 329 328 328 326 325 322 322 321 319 318 316 316 313 310 311 310 308 309 310 314 315 315 314 310 310
229 172 192 118 275 248 256 257 284 343 347 328 8 17 332 333 347 1 350 337 335 341 348 339 329 331 333 333 328 329 333 341 339 340 341 339 338 337 341 341 342 341 340 342 341 344 341 336 335 334 334 336 340 341 342 341 339 336 332 328 328 328 329 326 325 324 324 322 320 319 318 317 316 314 314 313 309 304 303 302 309 309 309 312 309 307
252 83 58 226 305 347 292 302 321 319 336 326 325 338 347 347 360 1 349 339 335 341 341 336 329 331 329 329 332 331 335 343 338 339 339 338 335 338 342 341 340 341 342 343 341 340 341 338 337 337 337 337 340 342 339 335 333 328 326 327 327 328 327 326 325 323 323 322 320 319 320 320 319 322 322 319 318 314 310 310 305 306 301 296 305 307
321 230 216 247 295 206 270 286 286 326 302 295 356 341 344 348 357 1 356 349 342 339 335 327 332 330 333 331 338 339 338 340 341 341 341 338 335 337 340 340 340 338 341 341 339 340 337 338 336 335 335 336 337 338 336 332 330 328 327 327 327 326 326 327 328 326 322 321 321 320 321 319 323 326 325 323 323 320 321 318 313 308 305 305 306 300
241 62 300 272 259 251 258 263 345 321 285 216 349 358 355 359 350 352 357 350 344 341 335 332 335 334 334 334 340 343 340 338 345 342 340 333 334 337 338 339 338 338 337 340 340 341 339 336 333 333 332 332 333 332 331 330 329 326 327 329 328 329 330 329 328 325 321 321 323 323 324 324 325 326 325 325 326 324 316 307 312 314 311 303 259 266
45 313 272 339 314 317 328 328 7 351 327 330 341 358 357 10 355 344 344 344 348 343 338 334 333 332 335 343 346 346 341 337 343 343 338 334 332 335 336 336 336 335 338 338 336 335 334 334 333 331 331 329 333 330 330 326 326 327 328 329 332 334 333 332 328 326 325 325 324 323 325 328 326 325 323 321 323 327 327 324 334 335 323 306 330 340
158 227 116 277 246 288 305 333 357 297 290 294 327 351 358 11 353 347 342 343 343 342 340 338 335 334 338 348 353 350 342 340 339 340 335 332 333 335 336 335 335 335 336 337 336 336 334 333 330 329 329 333 333 330 329 327 326 328 329 331 332 334 333 332 330 326 325 326 327 326 327 325 324 325 322 321 323 323 323 326 331 336 341 345 348 353